Location: Newark
(48.4472°N, 1.4892°E)
Time: 12:47:02
(UTC+00:00)

Transit 4A - Pass Details

Date: 28 November 2019
Orbit: 870 x 975 km, 66.8° (Epoch: 07 December)

Event Time Altitude Azimuth Distance (km) Brightness Sun altitude
Rises 20:03:13 0° 216° (SW) 3,622 11.2 -39.0°
Reaches altitude 10° 20:05:47 10° 218° (SW) 2,667 10.5 -39.4°
Enters shadow 20:06:17 13° 218° (SW) 2,482 10.3 -39.5°
